User: anonymous   Login
Location: Newark
(39.9581°N, 97.2014°W)
Time: 02:12:52
(UTC+00:00)
Language:

Explorer 11/Cluster Stage 4 - Orbit

View from above orbital plane
View from above orbital plane
View from above satellite
View from above satellite

Ground track
Ground track

The orbit data is extracted from the following two-line orbital elements,

1   107U 61013A   20053.40377752  .00000301  00000-0  21444-4 0  9997
2   107  28.7866 116.8410 0547178 117.4163 248.3139 14.08901204949396
Epoch (UTC): 22 February 2020 09:41:26
Eccentricity: 0.0547178
inclination: 28.7866°
perigee height: 467 km
apogee height: 1259 km
right ascension of ascending node: 116.8410°
argument of perigee: 117.4163°
revolutions per day: 14.08901204
mean anomaly at epoch: 248.3139°
orbit number at epoch: 94939

The dashed part of the orbit path shows where the satellite is in the earth's shadow,  

DLR